Theta_e
330 336 341 341 347 341 340 336 336 337 340 339 340 339 339 341 345 355 334 331 332 336 340 339 335 346 346 342 339 337 337 338 338 336 333 331 330 329 329 330 332 335 335 331 330 330 330 328 324
340 339 340 343 345 340 340 337 340 340 341 340 339 340 340 346 340 341 332 331 332 336 339 341 331 341 342 341 339 338 338 338 338 337 333 330 328 328 329 330 331 333 332 329 326 324 320 319 318
338 339 344 343 341 342 343 338 339 338 336 337 334 335 341 344 337 335 332 331 333 335 337 343 327 331 338 335 335 334 335 335 336 336 336 336 332 328 327 328 329 332 333 330 327 325 319 319 319
336 339 343 340 340 340 341 341 336 338 336 334 335 339 342 339 337 336 335 331 333 335 338 343 330 328 333 333 334 335 335 334 334 336 335 334 334 332 330 329 329 329 329 329 328 326 322 319 320
334 338 337 339 339 339 339 341 336 337 337 335 336 340 342 339 337 338 335 331 332 333 338 346 327 327 333 337 340 338 337 337 336 336 337 336 334 333 332 330 330 330 329 327 327 326 323 320 320
332 336 336 337 340 338 340 341 337 336 336 336 336 337 341 339 338 337 334 332 331 333 335 345 330 326 333 339 342 340 338 338 337 336 337 338 337 335 332 331 330 330 330 331 328 327 323 320 321
333 333 335 338 335 337 339 341 340 336 336 336 336 338 341 341 337 336 334 333 332 335 336 340 344 337 329 330 332 337 338 338 338 337 336 337 336 336 333 329 328 328 329 332 332 329 323 320 321
331 334 333 337 335 337 337 338 339 337 336 336 337 340 343 340 338 338 336 335 334 337 338 339 339 342 342 345 341 337 336 338 334 338 337 339 338 337 334 331 327 326 328 330 336 331 322 321 320
331 332 332 335 338 337 338 337 337 339 338 337 338 338 340 340 339 338 337 338 338 338 339 339 340 340 341 341 346 341 340 337 332 341 341 340 343 339 331 341 337 334 333 333 335 332 327 323 320
331 331 331 331 333 337 336 336 337 341 344 343 338 338 339 341 340 340 340 340 340 341 341 343 348 347 345 344 344 343 342 337 328 334 328 333 331 337 341 339 339 337 334 331 335 333 329 330 325
330 330 331 331 332 334 336 337 337 341 342 340 342 340 340 340 341 341 341 342 343 345 347 345 343 344 345 344 342 340 340 339 335 332 335 333 328 332 341 340 337 339 338 333 329 333 331 328 327
329 330 330 332 333 334 337 336 338 339 339 339 339 339 340 342 342 346 346 347 346 343 343 342 342 346 346 344 341 340 341 335 336 339 339 342 340 341 342 340 337 334 335 335 337 335 332 330 330
330 332 333 333 332 335 335 337 338 339 339 340 339 340 341 345 346 341 334 344 343 343 342 341 345 347 346 343 342 341 341 340 339 339 339 342 342 342 341 341 340 337 334 334 332 332 331 331 331
331 334 334 335 335 336 340 341 341 341 341 342 342 343 346 347 345 335 339 344 345 343 342 345 344 346 344 343 343 342 341 340 338 339 341 344 343 341 341 341 339 337 336 335 333 331 330 330 330
332 335 334 335 335 337 335 336 344 343 343 344 345 346 345 344 343 344 345 347 344 341 344 346 342 344 344 342 341 341 339 339 338 339 342 343 342 339 339 339 339 338 336 338 335 333 331 331 330
333 336 336 333 333 340 338 345 343 341 341 342 343 344 346 345 343 344 345 345 342 342 342 343 344 343 342 340 340 339 338 337 339 339 339 340 339 338 339 337 335 333 334 334 334 333 332 330 329
334 332 335 336 334 337 342 345 342 341 341 344 346 347 347 348 348 347 346 342 341 342 340 340 339 341 341 340 339 337 336 340 340 337 336 335 334 333 334 333 335 334 333 332 332 330 328 327 325
334 332 333 333 334 337 340 343 341 339 340 341 345 347 348 348 348 345 340 339 339 340 340 340 341 339 339 338 336 335 335 337 337 334 333 331 331 330 330 329 329 326 325 326 326 328 329 329 328
330 331 333 333 334 336 340 341 340 339 339 342 344 347 348 345 342 341 341 338 339 338 336 334 334 332 330 331 331 331 333 335 332 332 330 328 326 326 325 326 326 326 326 326 325 324 324 324 322
330 336 339 334 334 337 338 339 339 339 340 341 342 344 345 344 343 340 338 337 336 334 333 331 329 329 326 325 324 324 324 327 326 326 324 322 323 321 320 320 320 320 320 320 322 322 320 320 318
335 331 332 335 334 336 340 342 340 341 341 341 342 343 343 341 340 338 336 334 332 331 330 328 327 326 326 325 323 323 322 322 322 321 321 319 319 317 317 316 316 316 316 316 317 316 316 317 317
333 331 331 332 336 341 338 344 346 342 342 342 342 341 339 336 336 335 333 331 328 325 325 326 326 325 324 324 322 321 320 319 318 317 317 316 317 316 316 316 315 315 316 315 314 314 316 316 317
332 332 333 333 335 339 341 344 343 339 342 341 340 338 336 334 333 332 330 328 325 324 323 324 325 324 323 322 321 319 318 317 316 316 316 316 316 316 316 316 315 315 315 315 314 314 316 316 317
332 335 336 342 338 347 341 343 343 341 342 341 339 337 335 333 332 330 327 325 324 325 324 323 323 322 322 321 319 318 317 317 316 316 315 315 315 315 317 315 314 314 314 313 314 314 314 316 317
334 335 339 349 343 344 338 333 343 339 338 339 338 337 334 332 331 329 328 325 324 325 324 323 322 321 320 319 318 316 316 315 315 316 316 316 315 315 315 315 316 316 316 316 316 316 315 315 316
330 334 337 338 333 330 337 343 343 339 339 337 336 336 334 332 330 329 327 325 325 325 324 323 321 321 318 318 315 316 315 315 315 315 316 315 315 315 316 316 316 315 316 316 316 316 316 316 315
331 336 335 334 335 337 339 340 339 339 339 337 336 335 334 332 330 328 326 326 325 324 324 322 321 320 318 316 315 315 314 315 315 315 315 315 315 315 316 316 316 316 314 314 314 314 314 314 315
333 331 332 336 336 333 335 343 347 341 340 338 337 336 334 332 329 327 325 325 325 324 323 322 320 319 317 315 315 315 314 314 314 316 316 316 315 316 316 316 315 314 314 314 314 314 314 314 315
333 336 333 334 338 335 333 340 335 338 339 338 336 334 334 331 329 327 324 325 324 323 322 321 320 318 315 315 315 315 314 314 316 316 315 315 315 316 316 315 313 314 312 313 313 314 314 314 314
331 331 333 335 335 334 334 341 336 336 338 337 335 333 332 330 328 326 324 325 324 322 321 320 319 317 315 315 315 315 314 316 316 316 316 315 316 316 315 314 312 312 312 313 313 313 313 314 313
Wind_Speed
7 6 9 13 7 4 16 21 19 16 17 14 7 12 7 17 16 4 15 9 13 15 15 15 14 12 9 7 7 6 6 5 3 2 3 3 3 3 4 5 6 6 6 7 8 8 9 9 10
11 8 10 5 6 14 14 20 18 14 12 11 5 6 13 15 16 15 15 10 13 14 13 13 13 11 9 7 6 5 4 3 3 3 4 4 4 3 3 3 3 4 4 5 6 7 8 9 10
12 13 9 8 11 14 15 18 14 15 13 10 14 13 14 12 10 11 16 14 13 12 12 14 11 12 10 9 8 7 6 5 4 3 3 4 3 2 2 2 2 2 1 1 2 3 4 6 8
12 10 8 6 16 14 15 11 17 15 18 9 15 16 12 12 7 17 15 14 13 12 13 11 12 11 10 9 8 7 6 6 5 5 4 4 5 6 5 4 4 3 2 2 2 2 3 4 7
17 7 4 12 18 14 13 11 12 17 17 16 16 16 15 13 14 14 13 12 10 10 12 10 13 11 9 7 6 6 6 6 6 6 6 6 7 8 9 8 7 6 5 5 5 5 5 4 6
13 6 7 8 17 18 10 8 13 16 15 17 17 16 14 13 13 12 13 11 9 8 7 10 11 10 9 8 7 7 6 6 7 7 8 7 8 10 11 12 11 10 9 8 8 7 7 6 6
14 2 11 19 12 18 9 17 13 15 16 10 14 18 12 13 13 13 12 10 8 7 5 5 6 8 8 9 8 8 8 5 9 9 9 10 11 13 15 15 15 14 14 12 11 9 9 7 6
11 9 8 22 11 17 10 10 9 15 13 10 4 14 12 15 13 12 12 9 7 6 4 3 3 7 5 16 8 7 8 7 5 11 9 10 14 16 19 17 16 14 16 15 14 11 9 9 9
9 4 4 16 18 14 27 8 11 4 14 12 12 15 20 18 13 12 10 8 6 4 2 3 6 7 7 7 6 6 5 5 2 4 11 8 11 14 29 27 12 12 17 17 16 14 11 10 13
11 4 16 10 11 16 5 10 7 8 30 16 12 17 21 17 13 10 7 3 3 9 6 6 8 10 12 14 5 8 6 7 10 8 12 11 16 23 21 16 12 18 20 15 19 18 16 19 18
4 10 5 8 9 8 6 12 7 18 13 13 22 16 16 15 10 8 3 11 13 15 13 12 10 11 12 11 12 13 7 11 8 12 13 17 18 22 19 15 17 14 11 11 19 21 16 16 17
11 8 4 7 4 3 5 8 13 16 13 10 17 14 14 12 3 34 36 27 22 15 12 13 12 10 9 9 10 10 5 6 5 8 8 14 14 17 16 14 14 12 11 6 23 13 17 9 11
9 3 1 3 6 5 1 14 14 13 9 11 14 11 11 15 26 25 7 13 13 13 13 14 11 9 10 11 10 7 6 4 6 9 9 13 17 17 15 13 13 12 12 13 11 11 13 11 14
3 1 5 4 8 7 25 21 16 10 12 12 13 16 17 13 17 10 3 9 11 12 14 14 12 11 11 11 10 8 9 11 13 13 12 13 12 13 11 11 11 13 10 12 13 14 15 16 17
4 27 22 8 4 12 23 22 13 12 15 17 18 16 12 13 11 11 11 10 12 13 12 15 12 12 13 12 13 11 10 13 12 13 8 12 13 14 12 11 9 13 12 12 13 16 18 19 20
7 11 12 10 7 34 27 18 9 13 17 17 15 12 13 11 10 11 9 12 12 15 16 14 13 13 15 15 16 14 12 15 13 17 9 11 14 13 13 14 13 15 14 15 14 14 11 12 17
23 2 20 11 14 12 20 15 12 11 14 15 12 13 12 10 11 10 11 14 13 15 16 16 15 16 17 15 15 16 16 13 15 14 14 14 13 13 14 14 10 10 11 12 14 17 13 13 24
16 13 3 13 10 12 14 14 10 12 17 13 13 12 13 12 12 13 13 11 16 15 16 16 17 18 17 15 16 18 19 18 12 15 16 17 17 16 16 13 13 13 11 11 11 14 15 11 16
5 4 8 6 3 7 11 11 11 9 13 15 15 15 14 14 12 9 10 16 15 17 17 17 17 19 21 19 19 19 16 13 13 12 12 13 18 17 17 16 14 15 14 12 12 12 16 16 17
4 23 20 5 5 6 11 11 11 12 13 15 14 13 11 11 12 14 14 15 15 16 16 18 19 20 22 21 20 19 19 12 13 10 11 16 15 18 17 19 18 18 18 17 9 13 17 19 16
20 11 4 2 6 7 21 9 6 15 15 14 14 11 11 11 13 12 13 13 14 15 16 19 19 20 22 24 21 20 19 16 17 17 17 17 11 13 14 14 15 16 16 16 17 15 15 17 17
9 9 6 4 11 6 15 4 6 3 14 11 11 11 12 11 13 11 11 12 14 15 16 18 19 20 22 23 22 22 21 19 18 18 17 14 11 11 13 13 13 11 14 14 14 14 11 11 15
9 10 8 5 14 11 14 2 3 11 16 11 11 10 11 12 10 10 11 13 16 16 16 16 16 19 21 22 23 23 22 19 17 17 15 14 12 12 14 16 16 13 13 12 13 12 12 11 12
7 5 4 19 9 6 21 14 8 7 7 10 11 9 8 9 9 11 13 13 15 15 15 14 16 18 20 21 22 22 20 18 18 19 17 17 16 16 19 20 17 16 16 16 14 14 14 14 12
13 9 2 5 4 4 7 3 10 8 8 11 10 8 7 5 10 10 13 16 15 15 15 15 17 17 21 22 22 20 19 17 17 20 20 23 20 21 21 19 18 17 17 17 17 15 14 14 13
15 8 8 14 11 9 16 5 7 12 12 10 9 7 6 9 10 10 13 14 15 13 14 15 16 19 19 19 20 17 18 19 20 17 17 16 18 17 17 17 17 18 19 19 19 18 16 14 17
10 6 11 9 17 10 4 11 12 9 10 10 8 6 6 6 6 9 12 12 12 12 10 14 16 14 13 19 17 17 16 15 14 15 15 15 17 18 18 18 20 19 20 20 20 17 17 17 17
4 6 8 6 7 12 6 14 7 10 10 8 6 5 6 3 5 9 11 11 12 13 12 14 15 11 15 17 15 15 14 14 15 14 14 15 17 17 18 19 20 19 18 18 17 16 17 17 19
4 2 3 4 5 7 8 7 6 8 11 8 5 5 5 1 8 9 11 11 12 13 14 13 15 17 17 15 13 13 11 12 13 16 17 17 16 17 17 18 20 17 19 18 18 17 17 18 20
3 6 4 7 7 3 7 4 5 7 12 8 6 4 7 5 7 10 11 11 12 13 12 13 14 15 16 14 13 13 10 12 13 14 16 17 17 17 17 17 20 17 20 18 18 19 19 18 21
Wind_Direction
229 230 264 265 249 124 66 59 54 48 63 65 67 33 46 29 18 101 137 120 133 133 152 159 164 165 170 171 170 173 176 175 179 168 147 137 119 101 95 92 85 77 69 63 55 50 45 39 36
262 252 245 267 279 86 72 74 62 66 103 118 101 115 52 63 61 97 129 139 143 133 146 159 167 167 171 179 180 191 204 213 214 204 195 186 173 145 109 101 94 81 69 62 57 48 47 50 41
281 272 261 242 57 60 78 82 80 74 57 76 90 53 52 94 96 85 113 140 137 142 145 173 180 175 180 185 189 197 201 206 221 244 265 286 275 223 180 162 152 139 128 79 56 45 36 30 26
295 252 250 124 75 67 90 88 65 74 94 61 70 91 82 65 81 109 132 143 139 145 143 179 195 185 187 194 200 210 219 218 216 228 237 256 277 286 273 242 221 209 239 283 302 312 329 353 1
244 308 308 87 93 79 85 97 83 94 69 77 83 91 92 90 100 115 133 146 146 144 142 168 191 194 196 203 220 229 236 257 253 240 243 250 252 262 267 265 255 248 248 264 279 290 288 302 335
274 122 333 111 83 82 79 84 95 93 90 106 91 82 92 117 126 126 138 143 141 141 143 148 187 204 204 209 223 239 253 260 276 277 268 265 269 263 259 260 255 248 249 255 263 270 264 272 313
300 350 61 42 82 80 84 117 71 63 83 74 100 102 117 141 121 129 135 137 145 128 157 151 185 207 230 234 234 239 253 258 299 287 293 291 284 278 266 255 255 253 252 251 254 253 251 262 285
294 323 109 91 349 89 110 92 91 102 100 121 13 129 132 110 137 128 126 133 132 133 143 202 182 221 237 222 220 256 260 261 286 310 311 312 300 295 291 265 255 257 256 253 249 241 235 260 274
276 290 89 92 115 290 109 117 92 164 116 87 85 91 115 135 144 129 127 124 156 123 92 340 329 310 294 303 175 308 253 252 24 320 324 327 298 310 311 245 239 257 263 255 243 234 238 258 266
279 94 65 27 24 75 57 122 128 123 90 263 78 107 122 137 141 127 169 134 163 114 60 23 344 326 310 316 299 295 254 278 258 293 311 295 330 296 300 296 292 266 265 255 243 237 240 264 245
350 29 40 76 22 351 122 77 82 81 245 58 166 121 129 142 143 154 73 126 34 41 25 9 356 341 329 330 317 308 286 269 267 264 288 288 276 300 296 301 297 249 214 214 262 236 243 229 248
274 70 2 68 112 231 81 100 49 32 27 31 82 118 132 145 84 43 360 356 52 28 6 8 4 12 10 349 333 331 308 274 233 248 283 326 284 276 275 288 291 284 269 99 205 223 226 227 263
252 101 154 165 187 345 274 55 87 47 36 72 87 116 125 91 74 72 26 2 22 13 10 12 16 24 19 7 356 338 336 290 272 287 322 293 280 270 277 279 283 281 285 295 279 242 256 244 243
95 50 112 180 124 67 81 25 21 62 74 91 91 80 71 81 91 72 191 41 17 22 14 14 19 17 8 7 358 332 321 318 319 319 317 311 287 280 274 275 279 285 276 281 288 287 284 282 266
176 40 339 98 95 120 62 12 41 65 77 84 88 87 81 88 82 83 61 42 25 23 13 16 17 14 4 359 348 335 323 324 315 311 323 313 304 295 289 289 292 304 309 297 293 283 274 271 265
66 155 204 78 347 93 92 252 92 106 105 102 106 109 98 84 66 59 74 62 39 29 21 12 9 7 353 346 342 335 332 320 340 352 339 340 327 332 322 311 307 296 277 283 289 300 293 306 313
313 124 96 352 54 109 126 115 109 93 89 96 115 96 102 123 81 50 47 61 38 28 23 20 15 5 353 349 344 337 338 24 0 351 357 354 347 349 344 344 345 343 317 307 316 297 297 282 282
258 99 17 49 44 105 90 102 107 95 90 91 101 102 87 70 67 59 53 50 42 34 28 21 22 12 353 350 347 347 342 357 0 13 14 3 357 354 350 349 354 351 340 330 321 300 290 281 276
13 19 88 91 11 89 94 106 96 85 100 96 98 82 85 71 81 85 64 49 46 45 38 29 24 16 7 7 4 1 354 353 357 7 7 6 3 358 356 345 339 337 329 312 315 316 305 293 297
332 55 332 122 171 139 124 106 109 102 83 86 87 90 96 108 89 73 51 61 52 44 36 29 23 22 18 10 9 1 350 352 356 15 34 15 1 360 353 350 336 346 324 317 342 333 326 307 310
308 9 44 119 177 197 85 3 257 112 103 101 103 104 92 65 68 72 72 56 46 44 34 30 27 25 24 15 13 6 359 357 356 350 354 351 0 356 354 348 344 340 330 330 349 334 322 313 311
126 339 296 225 225 212 180 164 63 70 113 107 93 75 79 79 83 77 60 45 39 28 34 30 27 24 20 18 12 5 1 358 352 351 354 349 5 4 5 2 1 354 329 2 337 337 323 312 297
15 309 295 208 242 126 333 283 285 283 129 109 91 84 84 84 67 59 46 37 23 23 27 30 26 22 17 14 12 6 4 359 359 359 1 358 9 12 14 357 358 352 354 350 335 324 324 301 307
298 282 345 12 315 154 226 240 152 166 166 119 101 83 74 79 77 58 32 33 26 24 18 26 19 19 13 11 9 9 5 5 8 0 4 357 358 1 17 355 355 352 354 341 336 329 324 316 315
271 313 221 239 248 270 175 284 88 136 90 92 96 96 80 69 57 36 32 16 25 24 15 8 16 13 11 4 8 10 8 8 6 4 5 351 355 355 357 351 356 354 347 339 335 325 318 312 326
308 328 321 339 335 345 52 7 157 120 113 106 96 86 81 47 38 23 39 16 16 14 15 6 7 27 10 2 7 13 9 4 4 358 350 351 347 347 347 352 347 343 343 339 341 338 334 323 314
353 327 5 303 266 273 188 112 93 130 134 134 107 98 81 56 40 28 34 27 5 2 26 12 8 27 9 7 7 24 8 5 0 352 349 353 348 344 348 346 349 353 350 348 342 345 341 337 328
314 349 304 242 317 323 190 83 157 187 151 126 129 121 96 21 41 38 37 29 6 5 19 18 2 31 15 5 18 24 9 1 356 349 355 352 352 351 352 360 359 356 356 1 351 345 342 340 336
295 198 346 282 310 322 312 98 28 139 146 151 118 97 112 265 33 37 42 26 17 12 11 25 5 10 11 3 48 26 5 354 356 2 5 6 358 357 5 4 357 6 1 358 354 351 351 354 359
3 358 331 328 353 6 275 97 50 108 119 133 120 132 77 20 26 34 36 28 29 17 14 20 13 13 10 3 63 30 6 358 2 4 10 9 4 7 5 1 3 7 2 360 0 4 6 1 8